| time (UTC) | temp C | wind direction | speed KPH | gust KPH | rain 1hr cm | rain 24hr cm | rain mn cm | humidity % | barometer mb |
| 20260507144530 | 12 | 271 | 3.2 | 19.3 | 0.00 | 0.05 | 0.00 | 49 | 1013.3 |
| 20260507143028 | 11 | 330 | 3.2 | 14.5 | 0.00 | 0.05 | 0.00 | 52 | 1013.4 |
| 20260507141628 | 11 | 323 | 8.0 | 17.7 | 0.00 | 0.05 | 0.00 | 55 | 1013.6 |
| 20260507140021 | 10 | 308 | 0.0 | 8.0 | 0.00 | 0.05 | 0.00 | 57 | 1013.9 |
| 20260507134522 | 10 | 194 | 0.0 | 1.6 | 0.00 | 0.08 | 0.00 | 55 | 1014.0 |
| 20260507133018 | 10 | 312 | 0.0 | 0.0 | 0.00 | 0.08 | 0.00 | 57 | 1013.9 |
| 20260507131513 | 8 | 312 | 0.0 | 0.0 | 0.00 | 0.08 | 0.00 | 61 | 1014.1 |
| 20260507130011 | 7 | 313 | 0.0 | 0.0 | 0.00 | 0.08 | 0.00 | 65 | 1014.3 |
| 20260507124510 | 6 | 313 | 0.0 | 0.0 | 0.00 | 0.10 | 0.00 | 68 | 1014.5 |
| 20260507123010 | 6 | 313 | 0.0 | 1.6 | 0.00 | 0.10 | 0.00 | 75 | 1014.5 |
| 20260507121508 | 5 | 313 | 0.0 | 0.0 | 0.00 | 0.10 | 0.00 | 83 | 1014.2 |
| 20260507120008 | 4 | 313 | 0.0 | 0.0 | 0.00 | 0.10 | 0.00 | 87 | 1014.3 |
| 20260507114506 | 3 | 313 | 0.0 | 0.0 | 0.00 | 0.30 | 0.00 | 92 | 1014.3 |
| 20260507113004 | 3 | 313 | 0.0 | 0.0 | 0.00 | 0.30 | 0.00 | 93 | 1014.1 |
| 20260507111502 | 2 | 313 | 0.0 | 0.0 | 0.00 | 0.30 | 0.00 | 92 | 1013.9 |
| 20260507104558 | 2 | 313 | 0.0 | 0.0 | 0.00 | 0.36 | 0.00 | 89 | 1013.7 |
| 20260507103057 | 3 | 313 | 0.0 | 0.0 | 0.00 | 0.36 | 0.00 | 88 | 1013.6 |
| 20260507101554 | 3 | 313 | 0.0 | 0.0 | 0.00 | 0.36 | 0.00 | 87 | 1013.3 |
| 20260507100053 | 3 | 313 | 0.0 | 0.0 | 0.00 | 0.36 | 0.00 | 86 | 1013.4 |
| 20260507094553 | 4 | 313 | 0.0 | 0.0 | 0.00 | 0.36 | 0.00 | 85 | 1013.3 |
| 20260507093046 | 5 | 313 | 0.0 | 0.0 | 0.00 | 0.36 | 0.00 | 81 | 1013.3 |
| 20260507091543 | 5 | 313 | 0.0 | 0.0 | 0.00 | 0.36 | 0.00 | 80 | 1013.2 |
| 20260507090042 | 5 | 313 | 0.0 | 0.0 | 0.00 | 0.36 | 0.00 | 77 | 1013.2 |
| 20260507084537 | 6 | 313 | 0.0 | 0.0 | 0.00 | 0.36 | 0.00 | 75 | 1013.0 |
| 20260507083038 | 6 | 313 | 0.0 | 0.0 | 0.00 | 0.36 | 0.00 | 74 | 1013.0 |
| 20260507081533 | 6 | 313 | 0.0 | 0.0 | 0.00 | 0.36 | 0.00 | 73 | 1013.3 |
| 20260507080030 | 7 | 313 | 0.0 | 0.0 | 0.00 | 0.36 | 0.00 | 73 | 1013.1 |
| 20260507074530 | 7 | 313 | 0.0 | 0.0 | 0.00 | 0.36 | 0.00 | 70 | 1013.1 |
| 20260507073027 | 7 | 313 | 0.0 | 0.0 | 0.00 | 0.36 | 0.00 | 72 | 1013.1 |
| 20260507071533 | 7 | 313 | 0.0 | 0.0 | 0.00 | 0.36 | 0.00 | 68 | 1013.1 |
| 20260507070024 | 7 | 313 | 0.0 | 0.0 | 0.00 | 0.36 | 0.00 | 68 | 1013.1 |
| 20260507064522 | 7 | 313 | 0.0 | 0.0 | 0.00 | 0.36 | 0.00 | 69 | 1013.1 |
| 20260507063024 | 7 | 313 | 0.0 | 6.4 | 0.00 | 0.36 | 0.00 | 69 | 1013.3 |
| 20260507061519 | 7 | 313 | 0.0 | 8.0 | 0.00 | 0.36 | 0.00 | 67 | 1013.4 |
| 20260507060017 | 8 | 315 | 0.0 | 0.0 | 0.00 | 0.36 | 0.00 | 67 | 1013.4 |
| 20260507054514 | 8 | 315 | 0.0 | 4.8 | 0.00 | 0.36 | 0.00 | 66 | 1013.4 |
| 20260507053015 | 8 | 315 | 0.0 | 0.0 | 0.00 | 0.36 | 0.00 | 67 | 1013.4 |
| 20260507051511 | 8 | 306 | 0.0 | 8.0 | 0.00 | 0.36 | 0.00 | 69 | 1013.4 |
| 20260507050011 | 8 | 313 | 0.0 | 0.0 | 0.00 | 0.36 | 0.00 | 68 | 1013.6 |
| 20260507044507 | 8 | 313 | 0.0 | 0.0 | 0.00 | 0.36 | 0.00 | 67 | 1013.3 |
| 20260507043007 | 8 | 313 | 0.0 | 0.0 | 0.00 | 0.36 | 0.00 | 71 | 1013.3 |
| 20260507041503 | 8 | 313 | 0.0 | 0.0 | 0.00 | 0.36 | 0.00 | 70 | 1013.5 |
| 20260507040115 | 8 | 313 | 0.0 | 6.4 | 0.00 | 0.36 | 0.00 | 69 | 1013.4 |
| 20260507034602 | 8 | 313 | 0.0 | 3.2 | 0.00 | 0.36 | 0.36 | 71 | 1012.8 |
| 20260507033058 | 8 | 313 | 3.2 | 6.4 | 0.00 | 0.36 | 0.36 | 70 | 1013.1 |
| 20260507031557 | 9 | 313 | 1.6 | 11.3 | 0.00 | 0.36 | 0.36 | 70 | 1012.9 |
| 20260507030055 | 9 | 311 | 3.2 | 11.3 | 0.00 | 0.36 | 0.36 | 71 | 1013.0 |
| 20260507024551 | 9 | 315 | 0.0 | 12.9 | 0.00 | 0.36 | 0.36 | 74 | 1012.8 |
| 20260507023047 | 9 | 323 | 4.8 | 9.7 | 0.00 | 0.36 | 0.36 | 81 | 1012.5 |
| 20260507021547 | 10 | 339 | 0.0 | 4.8 | 0.00 | 0.36 | 0.36 | 82 | 1012.0 |
| 20260507020051 | 10 | 328 | 3.2 | 11.3 | 0.00 | 0.36 | 0.36 | 82 | 1011.9 |
| 20260507014544 | 10 | 301 | 0.0 | 12.9 | 0.00 | 0.36 | 0.36 | 82 | 1012.1 |
| 20260507013040 | 10 | 332 | 1.6 | 9.7 | 0.00 | 0.36 | 0.36 | 83 | 1012.2 |
| 20260507011541 | 10 | 340 | 1.6 | 8.0 | 0.00 | 0.36 | 0.36 | 84 | 1012.2 |
| 20260507010037 | 10 | 270 | 1.6 | 6.4 | 0.00 | 0.36 | 0.36 | 85 | 1012.5 |
| 20260507004536 | 10 | 267 | 1.6 | 6.4 | 0.00 | 0.36 | 0.36 | 85 | 1012.6 |
| 20260507003033 | 10 | 295 | 0.0 | 0.0 | 0.00 | 0.36 | 0.36 | 86 | 1012.0 |
| 20260507001541 | 10 | 298 | 0.0 | 0.0 | 0.00 | 0.36 | 0.36 | 87 | 1012.1 |
| 20260507000029 | 10 | 298 | 0.0 | 4.8 | 0.00 | 0.36 | 0.36 | 87 | 1011.5 |
| 20260506234533 | 10 | 300 | 0.0 | 0.0 | 0.00 | 0.36 | 0.36 | 87 | 1011.3 |
| 20260506233026 | 10 | 300 | 0.0 | 0.0 | 0.00 | 0.36 | 0.36 | 87 | 1011.1 |
| 20260506231525 | 10 | 300 | 1.6 | 9.7 | 0.00 | 0.36 | 0.36 | 87 | 1010.9 |
| 20260506230022 | 10 | 300 | 0.0 | 0.0 | 0.00 | 0.36 | 0.36 | 88 | 1010.7 |
| 20260506224527 | 11 | 325 | 1.6 | 11.3 | 0.00 | 0.36 | 0.36 | 88 | 1010.8 |
| 20260506223018 | 11 | 313 | 3.2 | 6.4 | 0.00 | 0.36 | 0.36 | 88 | 1010.7 |
| 20260506221516 | 11 | 296 | 8.0 | 12.9 | 0.00 | 0.36 | 0.36 | 88 | 1010.4 |
| 20260506220013 | 11 | 293 | 6.4 | 16.1 | 0.00 | 0.36 | 0.36 | 90 | 1010.2 |
| 20260506214511 | 11 | 308 | 1.6 | 6.4 | 0.00 | 0.36 | 0.36 | 89 | 1010.0 |
| 20260506213016 | 11 | 320 | 1.6 | 11.3 | 0.00 | 0.36 | 0.36 | 89 | 1009.7 |
| 20260506211506 | 11 | 275 | 6.4 | 12.9 | 0.00 | 0.36 | 0.36 | 89 | 1009.6 |
| 20260506210004 | 11 | 318 | 4.8 | 9.7 | 0.00 | 0.36 | 0.36 | 91 | 1009.2 |
| 20260506204502 | 11 | 237 | 1.6 | 14.5 | 0.00 | 0.36 | 0.36 | 92 | 1008.9 |
| 20260506203143 | 11 | 283 | 6.4 | 17.7 | 0.00 | 0.36 | 0.36 | 91 | 1009.0 |
| 20260506201557 | 12 | 293 | 4.8 | 17.7 | 0.00 | 0.36 | 0.36 | 91 | 1009.0 |
| 20260506200055 | 12 | 229 | 0.0 | 16.1 | 0.00 | 0.36 | 0.36 | 91 | 1008.9 |
| 20260506194553 | 12 | 283 | 6.4 | 12.9 | 0.00 | 0.36 | 0.36 | 91 | 1008.8 |
| 20260506193048 | 12 | 238 | 8.0 | 14.5 | 0.00 | 0.36 | 0.36 | 92 | 1008.6 |
| 20260506191551 | 12 | 250 | 3.2 | 12.9 | 0.00 | 0.36 | 0.36 | 93 | 1008.4 |
| 20260506190049 | 12 | 324 | 9.7 | 19.3 | 0.00 | 0.36 | 0.36 | 93 | 1008.3 |
| 20260506184551 | 13 | 229 | 4.8 | 11.3 | 0.00 | 0.36 | 0.36 | 94 | 1007.9 |
| 20260506183038 | 13 | 231 | 4.8 | 11.3 | 0.00 | 0.36 | 0.36 | 94 | 1007.5 |
| 20260506181538 | 13 | 270 | 0.0 | 14.5 | 0.00 | 0.36 | 0.36 | 93 | 1007.6 |
| 20260506180038 | 14 | 198 | 1.6 | 9.7 | 0.00 | 0.36 | 0.36 | 94 | 1007.5 |
| 20260506174536 | 14 | 273 | 0.0 | 6.4 | 0.00 | 0.36 | 0.36 | 95 | 1007.5 |
| 20260506173044 | 13 | 274 | 1.6 | 6.4 | 0.00 | 0.36 | 0.36 | 96 | 1007.3 |
| 20260506171537 | 14 | 281 | 3.2 | 9.7 | 0.00 | 0.36 | 0.36 | 96 | 1007.1 |
| 20260506170033 | 14 | 220 | 3.2 | 8.0 | 0.00 | 0.36 | 0.36 | 97 | 1006.9 |
| 20260506164536 | 14 | 198 | 0.0 | 9.7 | 0.00 | 0.36 | 0.36 | 97 | 1006.6 |
| 20260506163052 | 14 | 232 | 1.6 | 12.9 | 0.03 | 0.36 | 0.36 | 97 | 1006.6 |
| 20260506161531 | 14 | 223 | 1.6 | 8.0 | 0.05 | 0.36 | 0.36 | 97 | 1006.5 |
| 20260506160034 | 14 | 226 | 0.0 | 4.8 | 0.05 | 0.36 | 0.36 | 97 | 1006.5 |
| 20260506154536 | 14 | 200 | 0.0 | 4.8 | 0.05 | 0.36 | 0.36 | 96 | 1006.4 |
| 20260506153032 | 13 | 231 | 0.0 | 6.4 | 0.03 | 0.33 | 0.33 | 96 | 1006.5 |
| 20260506151537 | 13 | 236 | 0.0 | 3.2 | 0.00 | 0.30 | 0.30 | 96 | 1006.3 |
| 20260506150029 | 13 | 211 | 0.0 | 8.0 | 0.00 | 0.30 | 0.30 | 96 | 1006.0 |